This demonstration page uses our WeatherBlox Daily Observations layout. Learn more.

Left ArrowRight Arrow

Hourly Observations for September 28, 2022

Temp ( °F °C ) Dew Point ( °F °C ) Humidity (%) Winds ( mph kmh ) Pressure ( in mb ) Visibility ( mi km ) Precip ( " mm )
12:52 am 00:52 Clear 61 16.1 44 6.7 54 54 NE 12 19 30.22 1023 10 16 0.00 0.00
1:52 am 01:52 Clear 59 15 44 6.7 58 58 ENE 9 15 30.23 1024 10 16 0.00 0.00
2:52 am 02:52 Clear 59 15 43 6.1 55 55 E 8 13 30.24 1024 10 16 0.00 0.00
3:52 am 03:52 Clear 59 15 41 5 51 51 E 10 17 30.25 1025 10 16 0.00 0.00
4:52 am 04:52 Clear 58 14.4 41 5 53 53 E 10 17 30.27 1025 10 16 0.00 0.00
5:52 am 05:52 Clear 58 14.4 40 4.4 51 51 E 9 15 30.28 1025 10 16 0.00 0.00
6:52 am 06:52 Clear 56 13.3 40 4.4 55 55 ESE 10 17 30.30 1026 10 16 0.00 0.00
7:52 am 07:52 Sunny 58 14.4 40 4.4 51 51 ESE 9 15 30.32 1027 10 16 0.00 0.00
8:52 am 08:52 Sunny 61 16.1 40 4.4 46 46 SE 9 15 30.34 1027 10 16 0.00 0.00
9:52 am 09:52 Sunny 66 18.9 41 5 40 40 ESE 10 17 30.35 1028 10 16 0.00 0.00
10:52 am 10:52 Sunny 69 20.6 40 4.4 34 34 ESE 12 19 30.36 1028 10 16 0.00 0.00
11:52 am 11:52 Sunny 71 21.7 41 5 34 34 E 8 13 30.35 1028 10 16 0.00 0.00
12:52 pm 12:52 Sunny 73 22.8 40 4.4 30 30 E 8 13 30.34 1027 10 16 0.00 0.00
1:52 pm 13:52 Sunny 75 23.9 41 5 29 29 E 8 13 30.32 1027 10 16 0.00 0.00
2:52 pm 14:52 Sunny 74 23.3 42 5.6 32 32 ENE 6 9 30.30 1026 10 16 0.00 0.00
3:52 pm 15:52 Sunny 75 23.9 42 5.6 31 31 ENE 12 19 30.28 1026 10 16 0.00 0.00
4:52 pm 16:52 Sunny 74 23.3 41 5 30 30 ENE 9 15 30.28 1026 10 16 0.00 0.00
5:52 pm 17:52 Sunny 72 22.2 38 3.3 29 29 ENE 13 20 30.28 1026 10 16 0.00 0.00
6:52 pm 18:52 Sunny 68 20 36 2.2 31 31 ENE 9 15 30.30 1026 10 16 0.00 0.00
7:52 pm 19:52 Clear 64 17.8 35 1.7 34 34 E 8 13 30.31 1026 10 16 0.00 0.00
8:52 pm 20:52 Clear 61 16.1 35 1.7 38 38 E 9 15 30.33 1027 10 16 0.00 0.00
9:52 pm 21:52 Clear 59 15 34 1.1 39 39 E 9 15 30.34 1028 10 16 0.00 0.00
10:52 pm 22:52 Clear 59 15 35 1.7 40 40 E 15 24 30.35 1028 10 16 0.00 0.00
11:52 pm 23:52 Clear 56 13.3 36 2.2 47 47 E 14 22 30.35 1028 10 16 0.00 0.00

Powered by AerisWeather